Estación de Tamelaike INIA

Ultimos registro cada 15 minutos 41
Estación Fecha / Hora Temperatura Humedad Lluvia Velocidad Dirección Radiación Presion
41 Tamelaike INIA 10-05-2026 10:00 4,8 92,1 0,2 0 0 52 1006
40 Tamelaike INIA 10-05-2026 09:45 4,7 91,3 0,1 0 0 37 1006
39 Tamelaike INIA 10-05-2026 09:30 4,8 90,3 0 0,1 271 45 1024
38 Tamelaike INIA 10-05-2026 09:15 4,7 89,5 0 0,3 265 49 1006
37 Tamelaike INIA 10-05-2026 09:00 4,7 89,8 0 1 259 43 1006
36 Tamelaike INIA 10-05-2026 08:45 4,6 88,6 0 0 0 38 1006
35 Tamelaike INIA 10-05-2026 08:30 3,9 90,8 0 0 0 20 1009
34 Tamelaike INIA 10-05-2026 08:15 3,6 92 0 0 0 11 1006
33 Tamelaike INIA 10-05-2026 08:00 3,7 91,4 0 0,2 253 5 1007
32 Tamelaike INIA 10-05-2026 07:45 3,9 91,4 0 0,4 264 0 1024
31 Tamelaike INIA 10-05-2026 07:30 3,9 90 0 0,5 253 0 1008
30 Tamelaike INIA 10-05-2026 07:15 3 94,2 0 0 0 0 1007
29 Tamelaike INIA 10-05-2026 07:00 2,9 94,2 0 0 0 0 1008
28 Tamelaike INIA 10-05-2026 06:45 3,3 91,1 0 0 0 0 1009
27 Tamelaike INIA 10-05-2026 06:30 3,7 91,6 0 0,5 311 0 1007
26 Tamelaike INIA 10-05-2026 06:15 3,8 89,1 0 0,4 217 0 1009
25 Tamelaike INIA 10-05-2026 06:00 3,4 92,3 0 0 183 0 1006
24 Tamelaike INIA 10-05-2026 05:45 3,1 93,2 0 0 0 0 1006
23 Tamelaike INIA 10-05-2026 05:30 3,1 93 0 0 0 0 1009
22 Tamelaike INIA 10-05-2026 05:15 3,5 89,5 0 0,2 223 0 1008
21 Tamelaike INIA 10-05-2026 05:00 3,4 91,2 0 0 178 0 1006
20 Tamelaike INIA 10-05-2026 04:45 2,4 93,8 0 0,7 120 0 1007
19 Tamelaike INIA 10-05-2026 04:30 2,4 92,8 0 0 160 0 1008
18 Tamelaike INIA 10-05-2026 04:15 2,8 91,3 0 0 0 0 1008
17 Tamelaike INIA 10-05-2026 04:00 2,8 91 0 0 0 0 1007
16 Tamelaike INIA 10-05-2026 03:45 2,4 91,8 0 0 183 0 1007
15 Tamelaike INIA 10-05-2026 03:30 2,6 91,1 0 0 0 0 1007
14 Tamelaike INIA 10-05-2026 03:15 2,5 92,5 0 0 0 0 1008
13 Tamelaike INIA 10-05-2026 03:00 2,8 92,8 0 0 110 0 1008
12 Tamelaike INIA 10-05-2026 02:45 2,9 92,3 0 0,1 115 0 1008
11 Tamelaike INIA 10-05-2026 02:30 3,1 89,6 0 0 254 0 1006
10 Tamelaike INIA 10-05-2026 02:15 2,6 92,1 0 0,1 211 0 1010
9 Tamelaike INIA 10-05-2026 02:00 3,3 89,2 0 0 0 0 1007
8 Tamelaike INIA 10-05-2026 01:45 3,7 87,6 0 0 0 0 1010
7 Tamelaike INIA 10-05-2026 01:30 4,1 87,2 0 0,1 286 0 1008
6 Tamelaike INIA 10-05-2026 01:15 4,7 83,6 0 4 232 0 1008
5 Tamelaike INIA 10-05-2026 01:00 3,5 84,7 0 2,9 243 0 1008
4 Tamelaike INIA 10-05-2026 00:45 3,2 88,3 0 0,4 252 0 1008
3 Tamelaike INIA 10-05-2026 00:30 3,4 87,9 0 0,7 258 0 1008
2 Tamelaike INIA 10-05-2026 00:15 3,6 86,8 0 0,4 264 0 1008
1 Tamelaike INIA 10-05-2026 00:00 3,7 86,9 0 0,2 235 0 1008